Regional Weather Roundup
Issued by NWS

Home | Current Version | Previous Version | Graphics & Text | Print | Product List | Glossary On
Versions: 1 2 3 4 5 6 7 8 9 10 11 12 13 14 15 16 17 18 19 20 21 22 23 24 25 26 27 28 29 30 31 32 33 34 35 36 37 38 39 40 41 42 43 44 45 46 47 48 49 50
000
ASUS44 KMEG 221100
RWRTN
TENNESSEE HOURLY STATE WEATHER ROUNDUP
NATIONAL WEATHER SERVICE MEMPHIS TN
600 AM CDT MON SEP 22 2014

TNZ002-004-019-021-049-052-054-088>092-221200-
WEST TENNESSEE

CITY           SKY/WX    TMP DP  RH WIND       PRES   REMARKS
MEMPHIS INTL   CLEAR     62  51  67 NE7       30.16R
NWS MEMPHIS      N/A     60 N/A N/A MISG        N/A
JACKSON        CLEAR     54  50  86 N3        30.17R
DYERSBURG      CLEAR     57  43  58 N6        30.19R
PARIS          CLEAR     48  46  93 N3        30.17R
$$

TNZ008-025-027-028-033-062-065-066-221200-
NORTH MIDDLE TENNESSEE

CITY           SKY/WX    TMP DP  RH WIND       PRES   REMARKS
NASHVILLE      CLEAR     56  50  80 N6        30.14R
CLARKSVILLE    CLEAR     52  49  89 N5        30.16R
COOKEVILLE     CLEAR     46  46 100 CALM      30.12R
CROSSVILLE     CLEAR     53  46  77 N5        30.13R
$$

TNZ061-075-076-078-094-096-097-221200-
SOUTH MIDDLE TENNESSEE

CITY           SKY/WX    TMP DP  RH WIND       PRES   REMARKS
FAYETTEVILLE   CLEAR     55  48  76 N6        30.11R
WINCHESTER     CLEAR     52  52 100 CALM      30.12R
SHELBYVILLE    CLEAR     55  52  88 N8        30.13R
$$

TNZ017-018-042-046-047-221200-
NORTHEAST TENNESSEE

CITY           SKY/WX    TMP DP  RH WIND       PRES   REMARKS
TRI CITIES     PTCLDY    50  48  93 N3        30.09R
ELIZABETHTON   FOG       48  48 100 CALM      30.10R VSB 0
$$

TNZ012-013-036-069-073-074-221200-
CENTRAL EAST TENNESSEE

CITY           SKY/WX    TMP DP  RH WIND       PRES   REMARKS
KNOXVILLE      CLEAR     57  51  80 N7        30.08R
OAK RIDGE      CLEAR     56  49  77 CALM      30.12R
GATLINBURG     SUNNY     52  52 100 CALM      30.09R
$$

TNZ083-085-099-221200-
SOUTHEAST TENNESSEE

CITY           SKY/WX    TMP DP  RH WIND       PRES   REMARKS
CHATTANOOGA    CLEAR     62  50  64 N5        30.08R
$$

SKY/WX REPORTED AS FAIR MEANS FEW OR NO CLOUDS BELOW
12 THOUSAND FEET.




USA.gov is the U.S. government's official web portal to all federal, state and local government web resources and services.